When you browse on this site, cookies collect data to enhance your experience and personalize the content and advertising you see.
Visit our Privacy Policy to learn more. By continuing to use the site, you agree to this use of cookies and data.
  • In Portugal
  • List of Countries
  • For 7 days
  • Water Temperature
  • Satellite Maps
  • Weather Map
  • Weather Widgets
  • user-avatar
    Login

    Hourly Weather Bihać

    Today, 20 January, Sunday

    Time Temperature Precipitation Wind Pressure Humidity
    00:00 -2°C° 0 mm 2 mps 707 mmHg 88%
    01:00 -1°C° 0 mm 1 mps 707 mmHg 90%
    02:00 -1°C° 0 mm 1 mps 707 mmHg 90%
    03:00 -1°C° 0 mm 1 mps 706 mmHg 90%
    04:00 -3°C° 0 mm 2 mps 706 mmHg 89%
    05:00 -1°C° 0 mm 1 mps 706 mmHg 89%
    06:00 -1°C° 0 mm 1 mps 706 mmHg 89%
    07:00 -1°C° 0 mm 1 mps 706 mmHg 89%
    08:00 0°C° 0 mm 1 mps 707 mmHg 85%
    09:00 +1°C° 0 mm 1 mps 707 mmHg 80%
    10:00 +3°C° 0 mm 1 mps 707 mmHg 75%
    11:00 +4°C° 0 mm 1 mps 707 mmHg 72%
    12:00 +4°C° 0 mm 0 mps 708 mmHg 69%
    13:00 +5°C° 0 mm 0 mps 708 mmHg 65%
    14:00 +4°C° 0 mm 0 mps 707 mmHg 69%
    15:00 +4°C° 0 mm 0 mps 707 mmHg 73%
    16:00 +3°C° 0 mm 0 mps 707 mmHg 77%
    17:00 +3°C° 0 mm 1 mps 707 mmHg 81%
    18:00 +2°C° 0 mm 1 mps 707 mmHg 85%
    19:00 +1°C° 0 mm 1 mps 707 mmHg 88%
    20:00 +1°C° 0 mm 1 mps 707 mmHg 89%
    21:00 +1°C° 0 mm 1 mps 708 mmHg 91%
    22:00 -1°C° 0 mm 2 mps 708 mmHg 92%
    23:00 -1°C° 0 mm 2 mps 708 mmHg 91%

    Tomorrow, 21 January, Monday

    Time Temperature Precipitation Wind Pressure Humidity
    00:00 -1°C° 0 mm 2 mps 708 mmHg 91%
    01:00 -1°C° 0 mm 2 mps 708 mmHg 90%
    02:00 -1°C° 0.1 mm 2 mps 708 mmHg 89%
    03:00 -1°C° 0.1 mm 2 mps 708 mmHg 88%
    04:00 -1°C° 0.1 mm 2 mps 708 mmHg 87%
    05:00 -1°C° 0.1 mm 3 mps 708 mmHg 87%
    06:00 -1°C° 0.1 mm 3 mps 708 mmHg 87%
    07:00 -1°C° 0.1 mm 3 mps 708 mmHg 86%
    08:00 -1°C° 0.1 mm 3 mps 709 mmHg 85%
    09:00 -1°C° 0.1 mm 3 mps 709 mmHg 83%
    10:00 -1°C° 0.1 mm 3 mps 709 mmHg 82%
    11:00 -1°C° 0.2 mm 3 mps 709 mmHg 81%
    12:00 -1°C° 0.2 mm 3 mps 709 mmHg 81%
    13:00 0°C° 0.2 mm 3 mps 709 mmHg 80%
    14:00 -1°C° 0.3 mm 3 mps 708 mmHg 82%
    15:00 -1°C° 0.3 mm 3 mps 708 mmHg 83%
    16:00 -1°C° 0.3 mm 3 mps 708 mmHg 85%
    17:00 -2°C° 0.6 mm 3 mps 708 mmHg 86%
    18:00 -2°C° 0.6 mm 3 mps 708 mmHg 88%
    19:00 -2°C° 0.6 mm 3 mps 708 mmHg 89%
    20:00 -2°C° 0.8 mm 3 mps 708 mmHg 89%
    21:00 -4°C° 0.8 mm 3 mps 708 mmHg 90%
    22:00 -4°C° 0.8 mm 3 mps 708 mmHg 91%
    23:00 -4°C° 0.8 mm 3 mps 708 mmHg 91%

    Day after tomorrow, 22 January, Tuesday

    Time Temperature Precipitation Wind Pressure Humidity
    00:00 -4°C° 0.8 mm 3 mps 707 mmHg 91%
    01:00 -4°C° 0.8 mm 3 mps 707 mmHg 92%
    02:00 -4°C° 0.7 mm 3 mps 707 mmHg 92%
    03:00 -4°C° 0.7 mm 3 mps 706 mmHg 92%
    04:00 -5°C° 0.7 mm 3 mps 706 mmHg 92%
    05:00 -5°C° 0.4 mm 3 mps 705 mmHg 91%
    06:00 -5°C° 0.4 mm 3 mps 705 mmHg 90%
    07:00 -5°C° 0.4 mm 3 mps 705 mmHg 90%
    08:00 -5°C° 0.2 mm 3 mps 704 mmHg 89%
    09:00 -4°C° 0.2 mm 3 mps 704 mmHg 88%
    10:00 -4°C° 0.2 mm 3 mps 704 mmHg 88%
    11:00 -4°C° 0.9 mm 3 mps 703 mmHg 89%
    12:00 -4°C° 0.9 mm 3 mps 703 mmHg 90%
    13:00 -2°C° 0.9 mm 3 mps 702 mmHg 91%
    14:00 -4°C° 0.7 mm 3 mps 701 mmHg 91%
    15:00 -4°C° 0.7 mm 3 mps 701 mmHg 90%
    16:00 -4°C° 0.7 mm 3 mps 700 mmHg 90%
    17:00 -4°C° 0.5 mm 3 mps 700 mmHg 90%
    18:00 -4°C° 0.5 mm 3 mps 699 mmHg 91%
    19:00 -4°C° 0.5 mm 3 mps 699 mmHg 91%
    20:00 -4°C° 0.3 mm 2 mps 698 mmHg 91%
    21:00 -4°C° 0.3 mm 2 mps 698 mmHg 91%
    22:00 -4°C° 0.3 mm 2 mps 698 mmHg 91%
    23:00 -4°C° 0.1 mm 2 mps 697 mmHg 91%

    23 January, Wednesday

    Time Temperature Precipitation Wind Pressure Humidity
    00:00 -4°C° 0.1 mm 2 mps 696 mmHg 91%
    01:00 -5°C° 0.1 mm 2 mps 696 mmHg 92%
    02:00 -5°C° 0 mm 2 mps 695 mmHg 92%
    03:00 -5°C° 0 mm 2 mps 695 mmHg 92%
    04:00 -5°C° 0 mm 2 mps 694 mmHg 92%
    05:00 -5°C° 0 mm 2 mps 694 mmHg 92%
    06:00 -5°C° 0 mm 2 mps 694 mmHg 92%
    07:00 -5°C° 0 mm 2 mps 694 mmHg 92%
    08:00 -2°C° 0 mm 1 mps 695 mmHg 90%
    09:00 0°C° 0 mm 1 mps 695 mmHg 89%
    10:00 +1°C° 0 mm 1 mps 696 mmHg 88%
    11:00 +2°C° 0 mm 1 mps 696 mmHg 89%
    12:00 +2°C° 0 mm 1 mps 696 mmHg 90%
    13:00 +3°C° 0 mm 1 mps 696 mmHg 91%
    14:00 +3°C° 0 mm 1 mps 696 mmHg 90%
    15:00 +2°C° 0 mm 1 mps 696 mmHg 90%
    16:00 +1°C° 0 mm 2 mps 696 mmHg 90%
    17:00 -1°C° 0 mm 2 mps 696 mmHg 89%
    18:00 -2°C° 0 mm 2 mps 696 mmHg 88%
    19:00 -2°C° 0 mm 2 mps 696 mmHg 87%
    20:00 -3°C° 0 mm 2 mps 696 mmHg 88%
    21:00 -3°C° 0 mm 2 mps 696 mmHg 88%
    22:00 -3°C° 0 mm 2 mps 696 mmHg 89%
    23:00 -3°C° 0 mm 2 mps 696 mmHg 89%

    24 January, Thursday

    Time Temperature Precipitation Wind Pressure Humidity
    00:00 -4°C° 0 mm 3 mps 696 mmHg 90%
    01:00 -4°C° 0 mm 3 mps 696 mmHg 90%
    02:00 -4°C° 0 mm 3 mps 696 mmHg 90%
    03:00 -2°C° 0 mm 3 mps 696 mmHg 90%
    04:00 -2°C° 0 mm 3 mps 696 mmHg 90%
    05:00 -3°C° 0 mm 4 mps 696 mmHg 89%
    06:00 -3°C° 0 mm 4 mps 696 mmHg 89%
    07:00 -3°C° 0 mm 4 mps 697 mmHg 88%
    08:00 -4°C° 0 mm 5 mps 697 mmHg 87%
    09:00 -3°C° 0 mm 6 mps 697 mmHg 85%
    10:00 -3°C° 0 mm 6 mps 697 mmHg 84%
    11:00 -3°C° 0.1 mm 6 mps 696 mmHg 84%
    12:00 -3°C° 0.1 mm 6 mps 696 mmHg 84%
    13:00 -2°C° 0.1 mm 7 mps 696 mmHg 83%
    14:00 -3°C° 0.1 mm 7 mps 696 mmHg 83%
    15:00 -3°C° 0.1 mm 7 mps 696 mmHg 84%
    16:00 -3°C° 0.1 mm 6 mps 695 mmHg 84%
    17:00 -3°C° 0.2 mm 6 mps 696 mmHg 84%
    18:00 -4°C° 0.2 mm 6 mps 696 mmHg 85%
    19:00 -4°C° 0.2 mm 6 mps 696 mmHg 86%
    20:00 -4°C° 0.2 mm 6 mps 696 mmHg 86%
    21:00 -4°C° 0.2 mm 6 mps 696 mmHg 86%
    22:00 -4°C° 0.2 mm 6 mps 696 mmHg 86%
    23:00 -4°C° 0.2 mm 6 mps 696 mmHg 86%

    25 January, Friday

    Time Temperature Precipitation Wind Pressure Humidity
    00:00 -4°C° 0.2 mm 6 mps 696 mmHg 86%
    01:00 -4°C° 0.2 mm 6 mps 696 mmHg 86%
    02:00 -4°C° 0.2 mm 6 mps 696 mmHg 86%
    03:00 -4°C° 0.2 mm 6 mps 696 mmHg 86%
    04:00 -6°C° 0.2 mm 7 mps 696 mmHg 86%
    05:00 -6°C° 0.1 mm 7 mps 696 mmHg 86%
    06:00 -6°C° 0.1 mm 7 mps 696 mmHg 85%
    07:00 -6°C° 0.1 mm 8 mps 696 mmHg 85%
    08:00 -5°C° 0.1 mm 8 mps 697 mmHg 85%
    09:00 -4°C° 0.1 mm 7 mps 697 mmHg 85%
    10:00 -4°C° 0.1 mm 7 mps 698 mmHg 85%
    11:00 -4°C° 0.1 mm 7 mps 698 mmHg 85%
    12:00 -4°C° 0.1 mm 7 mps 698 mmHg 85%
    13:00 -4°C° 0.1 mm 7 mps 699 mmHg 85%
    14:00 -4°C° 0.1 mm 7 mps 699 mmHg 85%
    15:00 -4°C° 0.1 mm 7 mps 699 mmHg 85%
    16:00 -4°C° 0.1 mm 7 mps 700 mmHg 85%
    17:00 -4°C° 0.1 mm 7 mps 700 mmHg 85%
    18:00 -5°C° 0.1 mm 8 mps 701 mmHg 84%
    19:00 -5°C° 0.1 mm 8 mps 701 mmHg 84%
    20:00 -5°C° 0.1 mm 8 mps 702 mmHg 84%
    21:00 -5°C° 0.1 mm 8 mps 702 mmHg 84%
    22:00 -5°C° 0.1 mm 8 mps 703 mmHg 84%
    23:00 -5°C° 0.1 mm 8 mps 703 mmHg 85%
    Show more